STARLINK-32368 (61067 NORAD) Tracking and Keplerian Element Data

This shows tracking and keplerian element data for the satellite.

Feedback or suggestion? Click here.




ElementValue
Catalog61067
NameSTARLINK-32368
Epoch Orbit478
Epoch Day286.50834502
Epoch Year2024
RAAN323.5724
Inclination53.1587
Eccentricity0.0001073
Argument of Perigee54.3917
Mean Anonmoly305.7192
Mean Motion15.49301807
Decay Rate0.00018862
L11 61067U 24164T 24286.50834502 .00018862 00000+0 34646-3 0 9996
L22 61067 53.1587 323.5724 0001073 54.3917 305.7192 15.49301807 4781



Live tracking and technical data element details for STARLINK-32368 (NORAD 61067). STARLINK-32368 can be tracked NOW for your location showing map with azimuth and elevation plus other details from your city location.







IsCatalogInMostPopularTable: catalog: 61067, numindb: 22
Update: records affected: 1



GetName: 61067 STARLINK-32368

Hit Count: updated at: Wed, 04 Dec 2024 09:04:48 GMT